STARLINK-3295 (50840 NORAD) Tracking and Keplerian Element Data
This shows tracking and keplerian element data for the satellite.
Feedback or suggestion? Click here.
Element | Value |
Catalog | 50840 |
Name | STARLINK-3295 |
Epoch Orbit | 2188 |
Epoch Day | 140.91667824 |
Epoch Year | 2022 |
RAAN | 293.5562 |
Inclination | 53.2144 |
Eccentricity | 0.0002172 |
Argument of Perigee | 32.4116 |
Mean Anonmoly | 110.6958 |
Mean Motion | 15.08824503 |
Decay Rate | 0.00010353 |
L1 | 1 50840U 22001AP 22140.91667824 .00010353 00000+0 66788-3 0 9993 |
L2 | 2 50840 53.2144 293.5562 0002172 32.4116 110.6958 15.08824503 21884 |
Live tracking and technical data element details for STARLINK-3295 (NORAD 50840). STARLINK-3295 can be tracked NOW for your location showing map with azimuth and elevation plus other details from your city location.
Track the satellite on the map from your city or location and see movement details for azimuth, elevation, latitude, longitude, range, height, and movement on the map or in text.
IsCatalogInMostPopularTable: catalog: 50840, numindb: 21
Update: records affected: 1
GetName: 50840 STARLINK-3295
Hit Count: updated at: Sun, 22 May 2022 05:34:02 GMT